Regional Weather Roundup
Issued by NWS

Home | Current Version | Previous Version | Graphics & Text | Print | Product List | Glossary On
Versions: 1 2 3 4 5 6 7 8 9 10 11 12 13 14 15 16 17 18 19 20 21 22 23 24 25 26 27 28 29 30 31 32 33 34 35 36 37 38 39 40 41 42 43 44 45 46 47 48 49 50
000
ASUS43 KOAX 250102
RWRNE

WEATHER ROUNDUP FOR NEBRASKA
NATIONAL WEATHER SERVICE OMAHA NE
800 PM CDT WED MAY 24 2017

NOTES: SATELLITE DATA IS BEING USED TO AUGMENT CLOUD COVER ABOVE
       12000 FEET.
       "FAIR" INDICATES FEW OR NO CLOUDS BELOW 12,000 FEET WITH NO
       SIGNIFICANT WEATHER AND/OR OBSTRUCTIONS TO VISIBILITY.

  * THESE STATIONS DO NOT REPORT WEATHER SUCH AS RAIN...SNOW OR FOG.

NEZ001>004-019>022-054>056-250200-
NEBRASKA PANHANDLE

CITY           SKY/WX    TMP DP  RH WIND       PRES   REMARKS
SCOTTSBLUFF    SUNNY     78  51  38 E8        29.42F
ALLIANCE       SUNNY     73  47  39 SE23G31   29.45F
CHADRON        SUNNY     78  48  34 S21       29.36F
GORDON         FAIR      73  46  37 S15G21    29.44F
KIMBALL        CLOUDY    79  40  24 SW14      29.53F
SIDNEY         PTSUNNY   76  46  34 SW12      29.50F
$$

NEZ057>060-069>072-079>082-250200-
SOUTHWEST NEBRASKA

CITY           SKY/WX    TMP DP  RH WIND       PRES   REMARKS
NORTH PLATTE   CLEAR     68  44  42 SE13      29.57S
IMPERIAL       SUNNY     71  44  37 SE22G29   29.53F
LEXINGTON      CLEAR     65  42  41 SE12      29.61F
MCCOOK         CLEAR     70  45  40 SE15      29.59S
$$

NEZ005>010-023>029-035>040-094-250200-
NORTH CENTRAL NEBRASKA

CITY           SKY/WX    TMP DP  RH WIND       PRES   REMARKS
VALENTINE      SUNNY     71  37  28 S18       29.51F
AINSWORTH      CLEAR     65  43  44 S13       29.55F
BROKEN BOW     CLEAR     64  43  46 SE16      29.60F
ORD            CLEAR     64  40  41 S10       29.61F
$$

NEZ041-046>049-061>064-073>077-083>087-250200-
SOUTH CENTRAL NEBRASKA

CITY           SKY/WX    TMP DP  RH WIND       PRES   REMARKS
GRAND ISLAND   CLEAR     63  43  48 S8        29.66F
AURORA         CLEAR     64  42  44 S9        29.66S
HASTINGS       CLEAR     64  41  42 S8        29.66F
HEBRON         CLEAR     65  44  46 S5        29.67F
HOLDREGE       CLEAR     64  41  43 SE13      29.63F
KEARNEY *      CLEAR     64  37  36 S12       29.65S
$$

NEZ011>018-030>034-042>045-250200-
NORTHEAST NEBRASKA

CITY           SKY/WX    TMP DP  RH WIND       PRES   REMARKS
NORFOLK        CLEAR     63  42  46 SE8       29.63F
ALBION         CLEAR     65  41  42 S8        29.64S
BLAIR          CLEAR     64  43  46 CALM      29.66S
FREMONT        CLEAR     65  40  41 E3        29.67F
TEKAMAH        CLEAR     65  41  41 CALM      29.66S
WAYNE          PTCLDY    64  42  44 SE8       29.65F
$$

NEZ050>053-065>068-078-088>093-250200-
SOUTHEAST NEBRASKA

CITY           SKY/WX    TMP DP  RH WIND       PRES   REMARKS
LINCOLN        CLEAR     65  42  43 CALM      29.67S
OMAHA EPPLEY   PTCLDY    66  45  46 CALM      29.66F
BEATRICE       CLEAR     65  44  46 CALM      29.67F
FALLS CITY     CLEAR     64  44  48 NW3       29.66F
NEBRASKA CITY  CLEAR     65  36  34 NE3       29.67S
$$

NEZ044-045-051>053-067-250200-
OMAHA AREA

CITY           SKY/WX    TMP DP  RH WIND       PRES   REMARKS
OMAHA EPPLEY   PTCLDY    66  45  46 CALM      29.66F
BLAIR          CLEAR     64  43  46 CALM      29.66S
FREMONT        CLEAR     65  40  41 E3        29.67F
MILLARD        CLEAR     67  45  45 CALM      29.66S
OFFUTT AFB     CLEAR     65  46  51 CALM      29.66S
WAHOO          FAIR      64  41  42 E3        29.66F
$$




USA.gov is the U.S. government's official web portal to all federal, state and local government web resources and services.